QPF
0.01 0.00 0.00 0.00 0.00 0.01 0.04 0.06 0.03 0.05 0.04 0.02 0.01 0.00 0.00 0.00 0.00 0.00 0.01 0.01 0.00 0.00 0.00 0.01 0.01 0.01 0.01 0.01 0.01 0.01 0.01 0.01 0.01 0.01 0.01 0.01 0.01 0.02 0.02 0.03 0.03 0.03 0.02
0.00 0.01 0.01 0.02 0.01 0.01 0.02 0.04 0.03 0.06 0.04 0.03 0.01 0.00 0.00 0.00 0.00 0.00 0.00 0.00 0.00 0.00 0.00 0.01 0.01 0.02 0.02 0.01 0.01 0.01 0.01 0.00 0.00 0.00 0.00 0.00 0.01 0.01 0.01 0.02 0.03 0.03 0.02
0.02 0.03 0.03 0.03 0.03 0.02 0.03 0.04 0.05 0.05 0.05 0.04 0.03 0.02 0.01 0.00 0.00 0.00 0.00 0.00 0.00 0.00 0.00 0.01 0.02 0.02 0.02 0.01 0.02 0.01 0.01 0.00 0.00 0.00 0.00 0.00 0.00 0.00 0.01 0.01 0.01 0.02 0.02
0.04 0.07 0.06 0.04 0.07 0.06 0.07 0.10 0.08 0.10 0.13 0.10 0.07 0.04 0.02 0.02 0.01 0.00 0.00 0.00 0.00 0.00 0.01 0.02 0.02 0.02 0.02 0.02 0.02 0.03 0.02 0.01 0.00 0.00 0.00 0.00 0.00 0.00 0.00 0.01 0.01 0.02 0.01
0.06 0.11 0.10 0.11 0.14 0.13 0.14 0.10 0.15 0.24 0.23 0.20 0.12 0.06 0.02 0.02 0.01 0.01 0.02 0.01 0.00 0.00 0.00 0.01 0.01 0.02 0.02 0.02 0.03 0.04 0.03 0.02 0.01 0.00 0.00 0.01 0.01 0.01 0.01 0.01 0.01 0.01 0.01
0.13 0.16 0.12 0.16 0.18 0.18 0.17 0.18 0.22 0.24 0.24 0.26 0.16 0.10 0.07 0.06 0.03 0.01 0.01 0.00 0.00 0.00 0.00 0.00 0.02 0.03 0.03 0.03 0.03 0.03 0.05 0.05 0.03 0.02 0.01 0.01 0.01 0.01 0.00 0.00 0.00 0.01 0.01
0.16 0.17 0.15 0.20 0.20 0.19 0.19 0.21 0.27 0.32 0.30 0.32 0.28 0.21 0.12 0.05 0.03 0.02 0.01 0.00 0.00 0.00 0.00 0.00 0.01 0.03 0.04 0.03 0.02 0.02 0.05 0.08 0.09 0.06 0.04 0.03 0.02 0.02 0.01 0.01 0.00 0.00 0.00
0.16 0.18 0.20 0.19 0.21 0.22 0.23 0.26 0.32 0.34 0.32 0.40 0.40 0.37 0.27 0.14 0.06 0.03 0.04 0.04 0.01 0.00 0.00 0.00 0.01 0.02 0.03 0.06 0.10 0.04 0.04 0.07 0.11 0.10 0.08 0.06 0.04 0.02 0.02 0.01 0.01 0.01 0.01
0.16 0.17 0.17 0.18 0.20 0.22 0.23 0.25 0.31 0.34 0.34 0.40 0.43 0.41 0.34 0.25 0.16 0.09 0.06 0.03 0.02 0.02 0.01 0.01 0.00 0.02 0.05 0.07 0.14 0.13 0.06 0.05 0.06 0.08 0.09 0.08 0.06 0.03 0.02 0.03 0.03 0.02 0.01
0.17 0.17 0.18 0.19 0.19 0.19 0.21 0.24 0.30 0.35 0.34 0.31 0.36 0.37 0.33 0.28 0.22 0.13 0.08 0.06 0.03 0.03 0.03 0.02 0.01 0.02 0.06 0.10 0.16 0.15 0.12 0.08 0.07 0.07 0.08 0.08 0.08 0.06 0.04 0.03 0.05 0.05 0.03
0.13 0.11 0.13 0.15 0.16 0.17 0.19 0.23 0.27 0.31 0.33 0.33 0.34 0.35 0.32 0.29 0.25 0.16 0.10 0.09 0.06 0.04 0.03 0.03 0.04 0.05 0.07 0.12 0.19 0.16 0.15 0.09 0.06 0.05 0.05 0.06 0.06 0.06 0.05 0.04 0.07 0.09 0.08
0.13 0.11 0.12 0.13 0.13 0.17 0.20 0.23 0.25 0.27 0.29 0.30 0.29 0.30 0.27 0.24 0.23 0.19 0.11 0.10 0.09 0.05 0.03 0.05 0.06 0.07 0.07 0.11 0.10 0.08 0.07 0.05 0.04 0.04 0.03 0.03 0.03 0.04 0.04 0.04 0.05 0.07 0.09
0.15 0.14 0.15 0.16 0.17 0.19 0.22 0.24 0.26 0.28 0.30 0.29 0.28 0.27 0.24 0.20 0.17 0.14 0.10 0.07 0.07 0.05 0.04 0.03 0.03 0.04 0.04 0.08 0.10 0.05 0.03 0.03 0.02 0.02 0.02 0.02 0.03 0.03 0.03 0.03 0.03 0.04 0.05
0.18 0.19 0.18 0.19 0.19 0.21 0.23 0.26 0.27 0.26 0.27 0.26 0.24 0.23 0.21 0.17 0.13 0.10 0.07 0.06 0.05 0.05 0.07 0.06 0.02 0.01 0.02 0.03 0.04 0.02 0.02 0.02 0.01 0.01 0.01 0.02 0.02 0.02 0.03 0.03 0.03 0.03 0.03
0.20 0.21 0.20 0.20 0.22 0.25 0.27 0.29 0.29 0.26 0.25 0.24 0.23 0.21 0.20 0.16 0.11 0.08 0.06 0.05 0.04 0.03 0.05 0.07 0.05 0.03 0.03 0.04 0.03 0.02 0.04 0.02 0.01 0.01 0.01 0.01 0.01 0.02 0.02 0.02 0.02 0.03 0.03
0.22 0.22 0.25 0.28 0.30 0.29 0.28 0.29 0.32 0.29 0.26 0.24 0.21 0.21 0.16 0.11 0.08 0.05 0.04 0.04 0.04 0.03 0.03 0.04 0.05 0.04 0.03 0.02 0.02 0.02 0.04 0.02 0.01 0.01 0.01 0.01 0.01 0.01 0.01 0.01 0.01 0.02 0.02
0.28 0.28 0.27 0.28 0.29 0.28 0.27 0.28 0.30 0.29 0.25 0.23 0.18 0.15 0.10 0.07 0.05 0.04 0.03 0.02 0.03 0.03 0.02 0.03 0.03 0.04 0.05 0.05 0.05 0.06 0.05 0.05 0.05 0.02 0.01 0.01 0.01 0.01 0.01 0.01 0.01 0.02 0.02
0.30 0.27 0.25 0.23 0.24 0.25 0.24 0.25 0.26 0.24 0.21 0.18 0.14 0.10 0.07 0.04 0.03 0.02 0.02 0.02 0.01 0.02 0.02 0.02 0.03 0.05 0.06 0.08 0.08 0.08 0.05 0.05 0.07 0.03 0.02 0.01 0.01 0.01 0.01 0.01 0.02 0.03 0.04
0.23 0.20 0.17 0.17 0.17 0.19 0.22 0.24 0.21 0.17 0.15 0.12 0.09 0.06 0.04 0.02 0.01 0.01 0.00 0.00 0.00 0.00 0.01 0.02 0.04 0.05 0.05 0.05 0.05 0.07 0.09 0.10 0.06 0.03 0.02 0.01 0.01 0.01 0.01 0.01 0.02 0.04 0.06
0.20 0.21 0.19 0.18 0.17 0.17 0.17 0.17 0.15 0.12 0.09 0.05 0.03 0.02 0.01 0.00 0.00 0.00 0.00 0.00 0.00 0.00 0.01 0.02 0.03 0.03 0.04 0.03 0.04 0.04 0.07 0.09 0.09 0.07 0.05 0.03 0.01 0.01 0.01 0.01 0.02 0.04 0.09
0.12 0.13 0.15 0.16 0.14 0.14 0.13 0.10 0.08 0.06 0.03 0.02 0.01 0.00 0.00 0.00 0.00 0.00 0.00 0.00 0.00 0.00 0.00 0.01 0.02 0.02 0.01 0.01 0.01 0.01 0.03 0.06 0.09 0.09 0.09 0.07 0.05 0.04 0.04 0.05 0.05 0.07 0.12
0.08 0.08 0.09 0.09 0.08 0.08 0.08 0.06 0.05 0.03 0.01 0.00 0.00 0.00 0.00 0.00 0.00 0.00 0.00 0.00 0.00 0.00 0.00 0.01 0.01 0.01 0.02 0.01 0.01 0.01 0.02 0.03 0.05 0.07 0.07 0.08 0.07 0.06 0.07 0.06 0.06 0.09 0.16
0.05 0.05 0.05 0.05 0.04 0.03 0.04 0.04 0.02 0.01 0.00 0.00 0.00 0.00 0.00 0.00 0.00 0.00 0.00 0.00 0.00 0.00 0.00 0.01 0.01 0.01 0.01 0.01 0.01 0.02 0.03 0.04 0.06 0.06 0.06 0.07 0.07 0.06 0.06 0.04 0.03 0.04 0.08
0.05 0.05 0.05 0.03 0.02 0.01 0.01 0.01 0.00 0.00 0.00 0.00 0.00 0.00 0.00 0.00 0.00 0.00 0.00 0.01 0.00 0.00 0.00 0.00 0.00 0.00 0.00 0.00 0.01 0.02 0.03 0.04 0.09 0.08 0.06 0.07 0.07 0.07 0.08 0.05 0.04 0.04 0.05
0.06 0.05 0.06 0.04 0.01 0.00 0.00 0.00 0.00 0.01 0.01 0.00 0.00 0.00 0.00 0.00 0.00 0.00 0.00 0.00 0.00 0.00 0.00 0.00 0.00 0.00 0.00 0.00 0.00 0.01 0.02 0.02 0.04 0.07 0.07 0.08 0.09 0.09 0.10 0.10 0.08 0.07 0.07
0.06 0.05 0.06 0.04 0.02 0.00 0.00 0.00 0.00 0.01 0.02 0.00 0.00 0.00 0.00 0.00 0.00 0.00 0.00 0.00 0.00 0.00 0.00 0.00 0.01 0.00 0.00 0.00 0.00 0.03 0.03 0.03 0.04 0.05 0.07 0.07 0.09 0.09 0.10 0.12 0.12 0.09 0.07
MSLP
1012.09 1012.34 1012.52 1012.65 1012.75 1012.85 1012.98 1013.13 1013.30 1013.45 1013.56 1013.57 1013.49 1013.29 1013.00 1012.68 1012.36 1012.10 1011.95 1011.93 1012.03 1012.23 1012.50 1012.79 1013.05 1013.26 1013.41 1013.50 1013.54 1013.58 1013.63 1013.72 1013.87 1014.09 1014.36 1014.68 1015.03 1015.38 1015.73 1016.07 1016.38 1016.69 1016.98
1011.42 1011.70 1011.92 1012.08 1012.22 1012.35 1012.50 1012.67 1012.86 1013.05 1013.20 1013.26 1013.21 1013.04 1012.77 1012.42 1012.06 1011.73 1011.50 1011.40 1011.44 1011.60 1011.86 1012.17 1012.49 1012.76 1012.96 1013.09 1013.15 1013.17 1013.19 1013.24 1013.34 1013.52 1013.76 1014.06 1014.41 1014.78 1015.15 1015.51 1015.85 1016.17 1016.49
1010.89 1011.18 1011.43 1011.62 1011.79 1011.95 1012.12 1012.33 1012.56 1012.79 1012.98 1013.10 1013.10 1012.97 1012.71 1012.34 1011.92 1011.50 1011.16 1010.94 1010.88 1010.97 1011.19 1011.49 1011.83 1012.15 1012.41 1012.58 1012.68 1012.72 1012.72 1012.74 1012.81 1012.94 1013.15 1013.44 1013.78 1014.15 1014.54 1014.91 1015.28 1015.63 1015.98
1010.50 1010.80 1011.06 1011.28 1011.47 1011.66 1011.86 1012.10 1012.36 1012.64 1012.88 1013.06 1013.11 1013.02 1012.77 1012.38 1011.90 1011.39 1010.92 1010.57 1010.38 1010.36 1010.50 1010.77 1011.11 1011.46 1011.76 1011.99 1012.13 1012.19 1012.21 1012.22 1012.26 1012.37 1012.55 1012.81 1013.14 1013.51 1013.89 1014.28 1014.66 1015.04 1015.42
1010.23 1010.51 1010.78 1011.01 1011.23 1011.44 1011.66 1011.92 1012.21 1012.52 1012.82 1013.05 1013.15 1013.10 1012.87 1012.47 1011.94 1011.35 1010.77 1010.28 1009.95 1009.81 1009.85 1010.05 1010.36 1010.72 1011.05 1011.33 1011.52 1011.62 1011.67 1011.69 1011.73 1011.82 1011.99 1012.22 1012.52 1012.87 1013.24 1013.62 1014.00 1014.38 1014.77
1009.98 1010.25 1010.51 1010.76 1010.99 1011.21 1011.45 1011.72 1012.03 1012.37 1012.70 1012.97 1013.12 1013.12 1012.92 1012.53 1011.98 1011.33 1010.67 1010.07 1009.62 1009.35 1009.28 1009.41 1009.67 1010.01 1010.37 1010.68 1010.92 1011.07 1011.16 1011.21 1011.26 1011.34 1011.49 1011.69 1011.96 1012.26 1012.60 1012.94 1013.30 1013.66 1014.05
1009.67 1009.92 1010.18 1010.43 1010.67 1010.90 1011.15 1011.42 1011.74 1012.09 1012.44 1012.74 1012.95 1012.99 1012.84 1012.50 1011.97 1011.31 1010.60 1009.94 1009.39 1009.03 1008.86 1008.91 1009.11 1009.43 1009.78 1010.11 1010.39 1010.59 1010.73 1010.81 1010.88 1010.97 1011.09 1011.26 1011.48 1011.74 1012.01 1012.30 1012.61 1012.93 1013.28
1009.24 1009.46 1009.71 1009.96 1010.21 1010.45 1010.70 1010.97 1011.28 1011.63 1012.00 1012.33 1012.57 1012.68 1012.61 1012.33 1011.86 1011.24 1010.55 1009.87 1009.29 1008.86 1008.63 1008.60 1008.75 1009.03 1009.36 1009.70 1010.00 1010.24 1010.41 1010.53 1010.62 1010.71 1010.82 1010.95 1011.12 1011.31 1011.52 1011.73 1011.97 1012.22 1012.52
1008.66 1008.85 1009.08 1009.33 1009.58 1009.83 1010.08 1010.35 1010.66 1011.00 1011.37 1011.72 1012.01 1012.18 1012.19 1012.02 1011.65 1011.12 1010.51 1009.87 1009.30 1008.86 1008.60 1008.52 1008.61 1008.84 1009.15 1009.48 1009.78 1010.03 1010.23 1010.37 1010.47 1010.56 1010.65 1010.75 1010.87 1010.99 1011.13 1011.27 1011.42 1011.60 1011.82
1007.96 1008.12 1008.34 1008.58 1008.83 1009.08 1009.33 1009.60 1009.90 1010.23 1010.60 1010.97 1011.30 1011.54 1011.65 1011.59 1011.35 1010.96 1010.46 1009.92 1009.41 1009.00 1008.73 1008.62 1008.68 1008.86 1009.12 1009.41 1009.69 1009.93 1010.13 1010.27 1010.38 1010.46 1010.54 1010.62 1010.70 1010.77 1010.85 1010.93 1011.01 1011.11 1011.26
1007.25 1007.36 1007.55 1007.79 1008.03 1008.28 1008.54 1008.80 1009.09 1009.41 1009.78 1010.16 1010.52 1010.83 1011.03 1011.09 1010.99 1010.75 1010.39 1009.97 1009.56 1009.21 1008.97 1008.85 1008.87 1009.00 1009.20 1009.44 1009.67 1009.88 1010.05 1010.18 1010.28 1010.36 1010.43 1010.49 1010.55 1010.61 1010.65 1010.68 1010.71 1010.76 1010.84
1006.63 1006.69 1006.84 1007.05 1007.29 1007.54 1007.79 1008.05 1008.33 1008.65 1009.01 1009.39 1009.78 1010.14 1010.41 1010.58 1010.61 1010.51 1010.29 1010.01 1009.71 1009.44 1009.24 1009.13 1009.12 1009.19 1009.33 1009.49 1009.66 1009.81 1009.93 1010.03 1010.11 1010.18 1010.25 1010.32 1010.39 1010.44 1010.48 1010.50 1010.51 1010.52 1010.56
1006.20 1006.20 1006.31 1006.49 1006.71 1006.95 1007.19 1007.45 1007.72 1008.03 1008.38 1008.77 1009.16 1009.54 1009.87 1010.11 1010.24 1010.26 1010.18 1010.02 1009.82 1009.63 1009.47 1009.37 1009.34 1009.36 1009.42 1009.50 1009.59 1009.66 1009.73 1009.78 1009.84 1009.90 1009.98 1010.07 1010.16 1010.24 1010.30 1010.34 1010.35 1010.35 1010.35
1006.02 1005.96 1006.02 1006.16 1006.36 1006.58 1006.82 1007.07 1007.34 1007.64 1007.98 1008.34 1008.73 1009.11 1009.45 1009.74 1009.94 1010.04 1010.05 1009.99 1009.88 1009.76 1009.65 1009.56 1009.50 1009.47 1009.46 1009.46 1009.45 1009.45 1009.44 1009.44 1009.46 1009.52 1009.60 1009.72 1009.84 1009.97 1010.08 1010.15 1010.18 1010.17 1010.14
1006.09 1005.99 1006.00 1006.11 1006.28 1006.49 1006.72 1006.96 1007.22 1007.51 1007.82 1008.16 1008.52 1008.87 1009.21 1009.50 1009.72 1009.87 1009.94 1009.95 1009.91 1009.84 1009.76 1009.69 1009.61 1009.54 1009.47 1009.38 1009.29 1009.20 1009.12 1009.06 1009.04 1009.08 1009.17 1009.30 1009.47 1009.64 1009.79 1009.89 1009.93 1009.92 1009.85
1006.39 1006.25 1006.23 1006.31 1006.45 1006.65 1006.87 1007.11 1007.36 1007.63 1007.92 1008.22 1008.54 1008.86 1009.15 1009.42 1009.63 1009.79 1009.89 1009.94 1009.94 1009.92 1009.87 1009.80 1009.72 1009.62 1009.49 1009.34 1009.17 1009.00 1008.84 1008.73 1008.66 1008.67 1008.75 1008.89 1009.08 1009.27 1009.44 1009.56 1009.60 1009.56 1009.44
1006.83 1006.68 1006.65 1006.71 1006.84 1007.03 1007.24 1007.47 1007.72 1007.97 1008.24 1008.50 1008.77 1009.04 1009.29 1009.51 1009.69 1009.83 1009.94 1010.00 1010.03 1010.04 1010.02 1009.97 1009.88 1009.76 1009.60 1009.40 1009.17 1008.94 1008.71 1008.53 1008.42 1008.38 1008.43 1008.56 1008.73 1008.91 1009.07 1009.17 1009.18 1009.09 1008.90
1007.33 1007.20 1007.17 1007.23 1007.36 1007.54 1007.75 1007.98 1008.22 1008.46 1008.70 1008.94 1009.17 1009.38 1009.57 1009.74 1009.89 1010.01 1010.10 1010.17 1010.22 1010.25 1010.26 1010.23 1010.16 1010.03 1009.85 1009.62 1009.35 1009.06 1008.78 1008.54 1008.36 1008.27 1008.27 1008.35 1008.47 1008.61 1008.72 1008.76 1008.71 1008.54 1008.26
1007.81 1007.73 1007.72 1007.80 1007.94 1008.12 1008.33 1008.56 1008.80 1009.03 1009.25 1009.46 1009.65 1009.82 1009.97 1010.10 1010.21 1010.30 1010.38 1010.45 1010.51 1010.56 1010.59 1010.59 1010.53 1010.42 1010.24 1009.99 1009.70 1009.37 1009.05 1008.75 1008.51 1008.36 1008.29 1008.29 1008.34 1008.40 1008.43 1008.39 1008.24 1007.98 1007.61
1008.24 1008.20 1008.24 1008.34 1008.50 1008.69 1008.91 1009.14 1009.37 1009.60 1009.81 1010.01 1010.18 1010.32 1010.44 1010.53 1010.61 1010.68 1010.75 1010.82 1010.89 1010.95 1011.00 1011.02 1010.98 1010.89 1010.71 1010.47 1010.16 1009.82 1009.46 1009.12 1008.83 1008.61 1008.46 1008.37 1008.33 1008.30 1008.23 1008.09 1007.85 1007.50 1007.05
1008.57 1008.61 1008.69 1008.83 1009.00 1009.20 1009.43 1009.67 1009.90 1010.13 1010.34 1010.53 1010.68 1010.81 1010.91 1010.99 1011.05 1011.10 1011.15 1011.22 1011.29 1011.36 1011.42 1011.45 1011.43 1011.35 1011.19 1010.96 1010.66 1010.31 1009.93 1009.56 1009.23 1008.95 1008.73 1008.57 1008.43 1008.30 1008.13 1007.90 1007.58 1007.16 1006.64
1008.82 1008.92 1009.05 1009.22 1009.42 1009.63 1009.87 1010.11 1010.35 1010.58 1010.79 1010.98 1011.14 1011.27 1011.36 1011.42 1011.47 1011.51 1011.55 1011.60 1011.65 1011.72 1011.77 1011.81 1011.80 1011.73 1011.58 1011.37 1011.08 1010.74 1010.37 1009.99 1009.63 1009.31 1009.04 1008.81 1008.60 1008.39 1008.15 1007.84 1007.46 1006.99 1006.46
1008.99 1009.15 1009.32 1009.52 1009.74 1009.96 1010.21 1010.45 1010.70 1010.94 1011.17 1011.37 1011.53 1011.66 1011.76 1011.82 1011.85 1011.87 1011.89 1011.91 1011.95 1011.99 1012.02 1012.04 1012.02 1011.95 1011.82 1011.62 1011.35 1011.04 1010.68 1010.32 1009.96 1009.63 1009.33 1009.06 1008.80 1008.54 1008.25 1007.91 1007.50 1007.03 1006.52
1009.09 1009.29 1009.50 1009.72 1009.96 1010.20 1010.45 1010.71 1010.97 1011.22 1011.46 1011.67 1011.85 1011.99 1012.09 1012.15 1012.17 1012.17 1012.16 1012.15 1012.14 1012.14 1012.14 1012.13 1012.09 1012.01 1011.88 1011.70 1011.46 1011.17 1010.85 1010.52 1010.18 1009.87 1009.57 1009.29 1009.01 1008.73 1008.43 1008.08 1007.69 1007.25 1006.78
1009.11 1009.35 1009.59 1009.84 1010.09 1010.34 1010.61 1010.88 1011.16 1011.43 1011.68 1011.92 1012.11 1012.26 1012.36 1012.41 1012.43 1012.40 1012.36 1012.31 1012.25 1012.21 1012.16 1012.11 1012.04 1011.95 1011.82 1011.65 1011.43 1011.18 1010.91 1010.61 1010.32 1010.03 1009.76 1009.49 1009.23 1008.95 1008.66 1008.33 1007.97 1007.59 1007.18
1009.05 1009.33 1009.61 1009.87 1010.14 1010.42 1010.70 1010.99 1011.29 1011.58 1011.86 1012.11 1012.32 1012.48 1012.58 1012.63 1012.63 1012.59 1012.52 1012.43 1012.33 1012.24 1012.15 1012.05 1011.96 1011.85 1011.71 1011.55 1011.36 1011.15 1010.91 1010.66 1010.41 1010.16 1009.92 1009.68 1009.44 1009.19 1008.92 1008.63 1008.31 1007.98 1007.65
Thickness
5796 5796 5795 5793 5790 5789 5787 5784 5783 5782 5781 5780 5780 5780 5780 5780 5780 5781 5780 5777 5775 5773 5771 5768 5766 5763 5761 5760 5758 5757 5756 5755 5754 5752 5750 5748 5746 5744 5742 5739 5736 5733 5730
5797 5795 5793 5790 5787 5786 5785 5783 5782 5780 5779 5778 5778 5779 5779 5779 5779 5780 5780 5778 5776 5774 5772 5770 5768 5765 5763 5761 5759 5757 5756 5755 5754 5752 5751 5749 5747 5745 5743 5740 5738 5735 5732
5795 5793 5789 5786 5784 5783 5781 5779 5777 5775 5774 5774 5773 5774 5775 5775 5776 5777 5777 5777 5776 5774 5772 5771 5768 5766 5764 5761 5759 5757 5756 5754 5753 5752 5750 5749 5747 5745 5743 5741 5739 5736 5733
5792 5789 5785 5783 5781 5779 5777 5773 5771 5768 5766 5765 5764 5766 5768 5770 5771 5773 5774 5775 5775 5775 5774 5770 5768 5766 5763 5761 5759 5758 5756 5754 5752 5751 5749 5748 5746 5744 5742 5740 5738 5736 5734
5789 5785 5781 5779 5776 5773 5770 5767 5765 5761 5757 5756 5755 5757 5759 5761 5764 5767 5770 5772 5773 5773 5772 5771 5769 5766 5763 5761 5759 5757 5755 5753 5751 5749 5748 5747 5745 5744 5742 5740 5738 5736 5734
5784 5780 5776 5773 5770 5766 5762 5759 5756 5753 5750 5747 5746 5747 5749 5751 5755 5760 5765 5769 5770 5771 5770 5769 5767 5764 5762 5760 5758 5756 5754 5752 5750 5748 5746 5745 5743 5742 5740 5739 5737 5735 5733
5778 5774 5771 5768 5764 5760 5757 5753 5749 5744 5742 5740 5734 5732 5737 5743 5748 5754 5759 5762 5764 5766 5766 5764 5762 5760 5759 5757 5755 5753 5751 5750 5748 5746 5744 5742 5741 5740 5738 5737 5735 5733 5732
5771 5768 5764 5761 5758 5754 5750 5747 5743 5737 5735 5733 5727 5721 5720 5727 5738 5750 5754 5756 5758 5760 5760 5759 5757 5755 5754 5753 5751 5749 5747 5746 5744 5743 5741 5739 5738 5737 5736 5734 5733 5731 5730
5765 5762 5760 5757 5753 5750 5746 5742 5739 5733 5729 5729 5726 5718 5711 5712 5721 5734 5742 5748 5752 5753 5752 5751 5751 5750 5749 5747 5746 5744 5742 5740 5739 5738 5737 5735 5734 5734 5733 5731 5729 5728 5727
5758 5756 5754 5751 5748 5745 5742 5740 5737 5732 5728 5723 5722 5720 5717 5715 5708 5714 5728 5737 5742 5743 5743 5744 5743 5743 5742 5741 5739 5737 5735 5733 5732 5731 5731 5730 5729 5729 5728 5727 5726 5725 5724
5751 5749 5747 5745 5742 5740 5738 5736 5733 5729 5725 5721 5718 5715 5712 5711 5709 5705 5709 5718 5727 5733 5736 5736 5736 5735 5734 5733 5732 5730 5727 5726 5725 5724 5724 5723 5723 5723 5723 5722 5722 5721 5720
5742 5742 5741 5738 5736 5734 5733 5731 5728 5725 5721 5719 5716 5712 5709 5706 5706 5704 5704 5708 5713 5721 5728 5729 5729 5727 5727 5725 5724 5722 5720 5719 5718 5717 5716 5716 5715 5715 5715 5716 5716 5716 5716
5730 5732 5731 5729 5727 5728 5727 5724 5721 5718 5716 5714 5712 5709 5707 5706 5706 5704 5702 5703 5706 5712 5718 5720 5722 5722 5720 5718 5716 5714 5714 5713 5711 5710 5709 5709 5708 5708 5708 5708 5709 5709 5710
5719 5720 5719 5719 5719 5719 5718 5716 5714 5713 5711 5709 5708 5705 5702 5702 5702 5701 5699 5697 5696 5700 5704 5707 5713 5714 5712 5711 5709 5708 5708 5707 5706 5705 5703 5702 5701 5701 5701 5701 5701 5702 5704
5706 5707 5706 5707 5707 5707 5707 5707 5706 5705 5704 5702 5700 5698 5696 5696 5696 5696 5696 5694 5690 5686 5688 5695 5699 5703 5703 5703 5702 5702 5702 5701 5700 5698 5697 5695 5694 5693 5694 5694 5694 5695 5697
5691 5691 5691 5692 5692 5693 5695 5696 5696 5696 5694 5692 5691 5690 5688 5687 5688 5689 5689 5689 5688 5683 5680 5686 5689 5693 5694 5694 5695 5695 5695 5695 5694 5692 5691 5689 5688 5687 5687 5686 5687 5688 5690
5674 5674 5674 5676 5676 5678 5681 5683 5684 5684 5683 5681 5681 5680 5678 5678 5678 5679 5680 5681 5680 5678 5673 5677 5681 5683 5683 5683 5685 5687 5688 5688 5687 5686 5684 5683 5681 5680 5679 5679 5680 5681 5684
5658 5658 5659 5660 5662 5665 5668 5671 5672 5673 5672 5670 5670 5669 5668 5669 5668 5668 5670 5671 5671 5671 5669 5666 5669 5672 5672 5673 5674 5676 5679 5680 5680 5679 5677 5675 5674 5673 5672 5673 5674 5675 5677
5646 5644 5646 5648 5649 5652 5655 5658 5659 5660 5661 5660 5659 5657 5657 5657 5656 5658 5660 5660 5661 5663 5663 5660 5660 5661 5662 5663 5663 5665 5668 5668 5670 5670 5668 5667 5666 5665 5665 5665 5666 5668 5671
5636 5634 5634 5636 5637 5640 5643 5645 5647 5647 5648 5647 5647 5646 5646 5645 5645 5648 5650 5649 5650 5650 5652 5651 5650 5649 5649 5649 5650 5649 5652 5654 5656 5659 5658 5659 5658 5657 5658 5658 5658 5660 5663
5628 5626 5625 5626 5628 5630 5632 5633 5635 5636 5636 5636 5636 5636 5636 5636 5636 5638 5639 5637 5638 5638 5639 5638 5637 5636 5634 5633 5633 5636 5637 5640 5643 5645 5645 5647 5648 5648 5649 5650 5650 5652 5655
5621 5620 5618 5618 5619 5619 5620 5623 5626 5626 5627 5627 5627 5627 5627 5628 5629 5629 5629 5628 5628 5627 5626 5625 5624 5621 5620 5621 5621 5622 5624 5625 5626 5631 5631 5633 5636 5636 5639 5640 5640 5642 5645
5616 5614 5613 5612 5611 5610 5613 5614 5615 5618 5618 5619 5620 5620 5622 5621 5620 5621 5622 5622 5621 5620 5618 5616 5613 5611 5611 5611 5610 5610 5611 5612 5612 5616 5617 5619 5622 5623 5626 5628 5629 5631 5634
5613 5611 5609 5607 5606 5605 5606 5607 5608 5611 5612 5612 5612 5612 5611 5610 5611 5612 5614 5615 5615 5614 5612 5611 5608 5606 5606 5603 5601 5600 5601 5603 5604 5604 5604 5603 5608 5611 5614 5616 5618 5620 5623
5610 5608 5606 5604 5602 5600 5600 5601 5601 5604 5604 5605 5605 5603 5605 5603 5602 5604 5607 5607 5606 5605 5605 5603 5602 5601 5599 5597 5594 5590 5590 5588 5588 5590 5591 5590 5594 5598 5603 5605 5607 5609 5611
5608 5605 5603 5601 5599 5597 5595 5595 5595 5598 5599 5599 5598 5596 5595 5595 5595 5596 5598 5597 5595 5594 5595 5597 5596 5595 5593 5590 5587 5582 5578 5575 5574 5575 5578 5578 5580 5584 5588 5594 5596 5598 5601